Regional Weather Roundup
Issued by NWS

Home | Current Version | Previous Version | Text Only | Print | Product List | Glossary On
Versions: 1 2 3 4 5 6 7 8 9 10 11 12 13 14 15 16 17 18 19 20 21 22 23 24 25 26 27 28 29 30 31 32 33 34 35 36 37 38 39 40 41 42 43 44 45 46 47 48 49 50
000
ASUS43 KFSD 012110
RWRSD

WEATHER ROUNDUP FOR SOUTH DAKOTA
NATIONAL WEATHER SERVICE SIOUX FALLS SD
400 PM CDT WED APR 01 2015

NOTE: "FAIR" INDICATES FEW OR NO CLOUDS BELOW 12,000 FEET WITH NO
SIGNIFICANT WEATHER AND/OR OBSTRUCTIONS TO VISIBILITY.


SDZ001>005-009-010-012>017-012200-
NORTHWEST AND NORTH CENTRAL SOUTH DAKOTA

CITY           SKY/WX    TMP DP  RH WIND       PRES   REMARKS
BUFFALO          N/A     56  15  20 W38G46    29.67R
FAITH            N/A     56  18  22 NW31G43   29.70R
MOBRIDGE       SUNNY     66  26  22 NW25G37   29.58R
$$

SDZ012>016-024>037-041>051-057-063-072>074-012200-
SOUTHWEST AND SOUTH CENTRAL SOUTH DAKOTA

CITY           SKY/WX    TMP DP  RH WIND       PRES   REMARKS
RAPID CTY ARPT MOSUNNY   54  28  36 NW40G52   29.73R
PIERRE         MOSUNNY   66  29  24 NW26G32   29.63R
CUSTER         MOSUNNY   53  28  38 W17G28    29.75R
ELLSWORTH AFB  MOSUNNY   53  30  40 NW39G47   29.73R
PHILIP         SUNNY     65  26  23 NW25G39   29.68R
PINE RIDGE     MOSUNNY   63  34  33 VRB7G18   29.71S
SPEARFISH      FAIR      45  28  53 W18       29.81F
WINNER         FAIR      71  36  27 NW24G32   29.62R
$$

SDZ004>011-016>023-039-040-012200-
NORTHEAST SOUTH DAKOTA

CITY           SKY/WX    TMP DP  RH WIND       PRES   REMARKS
ABERDEEN       CLOUDY    69  40  34 NW23G32   29.54R
WATERTOWN      CLOUDY    65  33  30 NW17      29.51R
BROOKINGS      CLOUDY    72  34  25 W26G32    29.51R
SISSETON         N/A     69  39  33 NW22G35   29.44R
$$

SDZ017-020-022-023-036>040-048>070-012200-
SOUTHEAST SOUTH DAKOTA

CITY           SKY/WX    TMP DP  RH WIND       PRES   REMARKS
SIOUX FALLS    CLOUDY    77  35  21 NW21G41   29.49F
HURON          CLOUDY    66  40  38 NW21G26   29.55R
CHAMBERLAIN    CLOUDY    68  39  34 NW23      29.60R
MITCHELL       CLOUDY    71  38  29 NW17      29.57R
YANKTON        PTSUNNY   79  39  24 NW26G43   29.50R
$$

ABBREVIATIONS USED IN REMARKS
   TC - TEMPERATURE IN CELSIUS
  WCI - WIND CHILL INDEX
   HX - HEAT INDEX
  VSB - VISIBILITY




USA.gov is the U.S. government's official web portal to all federal, state and local government web resources and services.